K7MLX Weather Reports


time (UTC)temp
F
wind
direction
speed
knots
gust
knots
rain 1hr
in
rain 24hr
in
rain mn
in
humidity
%
barometer
mb
20260505100043 52 211 2.6 8.7 0.00 0.00 0.00 82 1013.6
20260505094532 52 186 2.6 8.7 0.00 0.00 0.00 81 1013.5
20260505093040 52 171 2.6 9.6 0.00 0.00 0.00 81 1013.4
20260505091549 52 148 2.6 7.8 0.00 0.00 0.00 82 1013.3
20260505090053 52 165 1.7 7.0 0.00 0.00 0.00 82 1013.2
20260505084536 52 178 2.6 7.0 0.00 0.00 0.00 81 1013.2
20260505083046 52 181 2.6 7.0 0.00 0.00 0.00 81 1013.0
20260505081545 52 214 2.6 8.7 0.00 0.00 0.00 81 1013.0
20260505080049 52 188 2.6 7.8 0.00 0.00 0.00 81 1013.1
20260505074541 53 193 2.6 7.8 0.00 0.00 0.00 81 1013.0
20260505073047 53 190 2.6 8.7 0.00 0.00 0.00 80 1012.7
20260505071541 53 194 2.6 8.7 0.00 0.00 0.00 80 1012.6
20260505070037 54 169 2.6 7.8 0.00 0.00 0.00 80 1012.4
20260505064534 54 137 1.7 8.7 0.00 0.00 0.00 79 1012.2
20260505063046 55 146 2.6 10.4 0.00 0.00 0.00 79 1012.0
20260505061539 56 173 3.5 7.8 0.00 0.00 0.00 79 1011.7
20260505060035 56 166 1.7 7.8 0.00 0.00 0.00 78 1011.7
20260505054549 57 177 1.7 7.0 0.00 0.00 0.00 78 1011.6
20260505053041 57 194 2.6 8.7 0.00 0.00 0.00 78 1011.4
20260505051542 58 194 2.6 7.8 0.00 0.00 0.00 77 1011.4
20260505041545 61 167 0.9 6.1 0.00 0.00 0.00 74 1010.8
20260505040044 62 157 0.9 6.1 0.00 0.00 0.00 73 1010.6
20260505034538 63 163 0.9 6.1 0.00 0.00 0.00 71 1010.3
20260505033036 65 225 0.9 6.1 0.00 0.00 0.00 68 1010.2
20260505031540 66 262 1.7 10.4 0.00 0.00 0.00 66 1009.9
20260505030051 69 0 1.7 7.8 0.00 0.00 0.00 62 1009.9
20260505024537 71 180 1.7 8.7 0.00 0.00 0.00 58 1009.6
20260505023037 72 255 0.9 6.1 0.00 0.00 0.00 56 1009.6
20260505021549 74 184 0.9 4.3 0.00 0.00 0.00 52 1009.6
20260505020049 75 40 0.9 4.3 0.00 0.00 0.00 52 1009.5
20260505014536 77 264 1.7 5.2 0.00 0.00 0.00 49 1009.5
20260505013032 77 192 1.7 5.2 0.00 0.00 0.00 49 1009.5
20260505011534 77 237 0.9 7.0 0.00 0.00 0.00 48 1009.6
20260505004537 79 181 1.7 6.1 0.00 0.00 0.00 45 1009.6
20260505003045 79 207 1.7 6.1 0.00 0.00 0.00 43 1009.7
20260505001541 78 239 0.9 7.8 0.00 0.00 0.00 44 1009.7
20260505000039 78 186 2.6 7.0 0.00 0.00 0.00 44 1009.7
20260504234539 78 204 0.9 5.2 0.00 0.00 0.00 44 1009.8
20260504233045 78 146 3.5 7.0 0.00 0.00 0.00 42 1009.7
20260504231537 79 123 2.6 7.0 0.00 0.00 0.00 39 1009.7
20260504230043 79 139 1.7 5.2 0.00 0.00 0.00 42 1009.9
20260504224557 80 255 0.9 5.2 0.00 0.00 0.00 42 1010.2
20260504223041 79 128 1.7 7.0 0.00 0.00 0.00 42 1010.3
20260504221539 79 196 1.7 5.2 0.00 0.00 0.00 44 1010.5
20260504220038 78 242 2.6 7.8 0.00 0.00 0.00 44 1010.6
20260504214542 77 213 2.6 7.0 0.00 0.00 0.00 47 1010.7
20260504213041 76 178 1.7 5.2 0.00 0.00 0.00 49 1010.8
20260504211538 75 150 2.6 7.8 0.00 0.00 0.00 51 1011.0
20260504210050 76 165 1.7 7.8 0.00 0.00 0.00 52 1011.1
20260504204543 75 250 0.9 6.1 0.00 0.00 0.00 52 1011.1
20260504203045 74 183 0.9 5.2 0.00 0.00 0.00 54 1011.1
20260504201547 73 198 1.7 6.1 0.00 0.00 0.00 56 1011.2
20260504200050 73 174 1.7 7.0 0.00 0.00 0.00 55 1011.1
20260504194531 72 0 0.9 6.1 0.00 0.00 0.00 58 1011.1
20260504193039 71 222 0.9 6.1 0.00 0.00 0.00 58 1011.2
20260504191537 72 0 0.9 6.1 0.00 0.00 0.00 56 1011.3
20260504190032 71 252 0.9 5.2 0.00 0.00 0.00 57 1011.4
20260504184539 70 213 1.7 5.2 0.00 0.00 0.00 57 1011.5
20260504183036 69 146 1.7 4.3 0.00 0.00 0.00 56 1011.4
20260504181538 68 263 0.9 6.1 0.00 0.00 0.00 59 1011.5
20260504180037 67 188 0.9 6.1 0.00 0.00 0.00 59 1011.5
20260504174535 66 234 1.7 5.2 0.00 0.00 0.00 60 1011.5
20260504173034 66 252 1.7 4.3 0.00 0.00 0.00 60 1011.5
20260504171535 64 208 0.9 3.5 0.00 0.00 0.00 62 1011.4